Terminal Aerodrome Forecast
Issued by NWS Bismarck, ND

Home | Current Version | Previous Version | Text Only | Print | Product List | Glossary Off
Versions: 1 2 3 4 5 6 7 8 9 10 11 12 13 14 15 16 17 18 19 20 21

377
FTUS43 KBIS 161959 AAA
TAFISN
TAF AMD
KISN 161959Z 1620/1718 02006KT 5SM -RA BR BKN018 OVC025
     FM170100 30005KT P6SM VCSH BKN020
     FM170700 27004KT P6SM BKN040
     FM171200 21005KT P6SM SCT070=

USA.gov is the U.S. government's official web portal to all federal, state and local government web resources and services.